TimeEDT,TemperatureF,Dew PointF,Humidity,Sea Level PressureIn,VisibilityMPH,Wind Direction,Wind SpeedMPH,Gust SpeedMPH,PrecipitationIn,Events,Conditions,WindDirDegrees,DateUTC
12:15 AM,64.4,62.6,94,29.70,8.0,South,4.6,-,N/A,,Mostly Cloudy,190,2012-10-20 04:15:00
12:35 AM,64.4,62.6,94,29.70,7.0,South,4.6,-,N/A,,Mostly Cloudy,190,2012-10-20 04:35:00
12:55 AM,64.4,62.6,94,29.70,7.0,WSW,8.1,-,N/A,,Overcast,240,2012-10-20 04:55:00
1:15 AM,64.4,62.6,94,29.70,8.0,WSW,5.8,-,N/A,,Mostly Cloudy,240,2012-10-20 05:15:00
1:35 AM,64.4,62.6,94,29.69,7.0,WSW,5.8,-,N/A,,Partly Cloudy,240,2012-10-20 05:35:00
1:55 AM,62.6,62.6,100,29.68,5.0,West,4.6,-,N/A,,Clear,260,2012-10-20 05:55:00
2:15 AM,62.6,62.6,100,29.68,4.0,SSW,4.6,-,N/A,,Clear,210,2012-10-20 06:15:00
2:35 AM,62.6,60.8,94,29.67,2.5,SW,4.6,-,N/A,,Scattered Clouds,220,2012-10-20 06:35:00
2:55 AM,62.6,60.8,94,29.67,4.0,SW,5.8,-,N/A,,Scattered Clouds,220,2012-10-20 06:55:00
3:15 AM,60.8,60.8,100,29.67,3.0,SSW,3.5,-,N/A,,Clear,200,2012-10-20 07:15:00
3:35 AM,60.8,60.8,100,29.67,3.0,SSW,4.6,-,N/A,,Clear,200,2012-10-20 07:35:00
3:55 AM,60.8,59.0,94,29.68,6.0,SSW,4.6,-,N/A,,Clear,210,2012-10-20 07:55:00
4:15 AM,60.8,59.0,94,29.67,8.0,South,4.6,-,N/A,,Clear,190,2012-10-20 08:15:00
4:35 AM,60.8,59.0,94,29.68,9.0,South,5.8,-,N/A,,Clear,190,2012-10-20 08:35:00
4:55 AM,59.0,57.2,94,29.68,6.0,SSW,5.8,-,N/A,,Clear,210,2012-10-20 08:55:00
5:15 AM,60.8,57.2,88,29.69,9.0,SW,4.6,-,N/A,,Clear,230,2012-10-20 09:15:00
5:35 AM,59.0,57.2,94,29.69,0.8,SW,3.5,-,N/A,,Overcast,220,2012-10-20 09:35:00
5:55 AM,57.2,55.4,94,29.69,0.8,SW,5.8,-,N/A,,Overcast,230,2012-10-20 09:55:00
6:15 AM,57.2,55.4,94,29.69,1.0,SW,6.9,-,N/A,,Overcast,220,2012-10-20 10:15:00
6:35 AM,57.2,55.4,94,29.68,1.5,WSW,5.8,-,N/A,,Overcast,240,2012-10-20 10:35:00
6:55 AM,55.4,55.4,100,29.69,3.0,SW,5.8,-,N/A,,Scattered Clouds,230,2012-10-20 10:55:00
7:15 AM,55.4,55.4,100,29.70,4.0,West,4.6,-,N/A,,Partly Cloudy,260,2012-10-20 11:15:00
7:35 AM,55.4,53.6,94,29.70,0.2,West,5.8,-,N/A,,Overcast,260,2012-10-20 11:35:00
7:55 AM,55.4,55.4,100,29.70,5.0,West,5.8,-,N/A,,Scattered Clouds,270,2012-10-20 11:55:00
8:15 AM,57.2,55.4,94,29.71,6.0,West,5.8,-,N/A,,Clear,260,2012-10-20 12:15:00
8:35 AM,57.2,57.2,100,29.71,5.0,West,6.9,-,N/A,,Clear,270,2012-10-20 12:35:00
8:55 AM,59.0,57.2,94,29.72,6.0,West,5.8,-,N/A,,Clear,280,2012-10-20 12:55:00
9:15 AM,60.8,57.2,88,29.72,8.0,West,8.1,-,N/A,,Clear,280,2012-10-20 13:15:00
9:35 AM,60.8,57.2,88,29.72,10.0,WNW,8.1,-,N/A,,Scattered Clouds,290,2012-10-20 13:35:00
9:55 AM,60.8,57.2,88,29.74,8.0,West,8.1,-,N/A,,Overcast,280,2012-10-20 13:55:00
10:15 AM,62.6,57.2,82,29.74,10.0,NW,5.8,-,N/A,,Mostly Cloudy,320,2012-10-20 14:15:00
10:35 AM,62.6,57.2,82,29.73,10.0,NW,6.9,-,N/A,,Partly Cloudy,320,2012-10-20 14:35:00
10:55 AM,64.4,55.4,73,29.73,10.0,WNW,3.5,-,N/A,,Clear,290,2012-10-20 14:55:00
11:15 AM,66.2,55.4,68,29.73,10.0,NNW,4.6,-,N/A,,Clear,330,2012-10-20 15:15:00
11:35 AM,68.0,53.6,60,29.73,10.0,West,6.9,-,N/A,,Clear,280,2012-10-20 15:35:00
11:55 AM,68.0,51.8,56,29.74,10.0,West,10.4,-,N/A,,Clear,280,2012-10-20 15:55:00
12:15 PM,69.8,51.8,53,29.72,10.0,WNW,8.1,-,N/A,,Clear,290,2012-10-20 16:15:00
12:35 PM,69.8,46.4,43,29.71,10.0,WNW,11.5,-,N/A,,Clear,300,2012-10-20 16:35:00
12:55 PM,69.8,46.4,43,29.71,10.0,West,8.1,-,N/A,,Clear,260,2012-10-20 16:55:00
1:15 PM,69.8,44.6,40,29.71,10.0,WSW,9.2,-,N/A,,Clear,250,2012-10-20 17:15:00
1:35 PM,69.8,44.6,40,29.70,10.0,West,12.7,18.4,N/A,,Clear,270,2012-10-20 17:35:00
1:55 PM,69.8,44.6,40,29.70,10.0,WSW,9.2,17.3,N/A,,Clear,250,2012-10-20 17:55:00
2:15 PM,71.6,44.6,38,29.70,10.0,West,13.8,18.4,N/A,,Clear,280,2012-10-20 18:15:00
2:35 PM,69.8,44.6,40,29.71,10.0,West,12.7,20.7,N/A,,Clear,270,2012-10-20 18:35:00
2:55 PM,69.8,44.6,40,29.71,10.0,WNW,16.1,-,N/A,,Clear,290,2012-10-20 18:55:00
3:15 PM,69.8,44.6,40,29.71,10.0,West,9.2,-,N/A,,Clear,270,2012-10-20 19:15:00
3:35 PM,69.8,46.4,43,29.71,10.0,WNW,15.0,19.6,N/A,,Clear,290,2012-10-20 19:35:00
3:55 PM,68.0,46.4,46,29.72,10.0,WNW,12.7,18.4,N/A,,Clear,290,2012-10-20 19:55:00
4:15 PM,66.2,46.4,49,29.72,10.0,West,10.4,17.3,N/A,,Clear,270,2012-10-20 20:15:00
4:35 PM,66.2,44.6,46,29.74,10.0,West,9.2,-,N/A,,Clear,270,2012-10-20 20:35:00
4:55 PM,66.2,44.6,46,29.75,10.0,West,11.5,-,N/A,,Scattered Clouds,280,2012-10-20 20:55:00
5:15 PM,64.4,44.6,49,29.75,10.0,WNW,12.7,-,N/A,,Partly Cloudy,290,2012-10-20 21:15:00
5:35 PM,64.4,44.6,49,29.76,10.0,West,10.4,16.1,N/A,,Clear,270,2012-10-20 21:35:00
5:55 PM,62.6,44.6,52,29.77,10.0,West,9.2,-,N/A,,Clear,280,2012-10-20 21:55:00
6:15 PM,60.8,42.8,52,29.78,10.0,West,8.1,-,N/A,,Clear,280,2012-10-20 22:15:00
6:35 PM,60.8,42.8,52,29.78,10.0,West,9.2,-,N/A,,Clear,280,2012-10-20 22:35:00
6:55 PM,59.0,42.8,55,29.79,10.0,West,8.1,-,N/A,,Clear,280,2012-10-20 22:55:00
7:15 PM,57.2,42.8,59,29.80,10.0,West,8.1,-,N/A,,Clear,280,2012-10-20 23:15:00
7:35 PM,57.2,42.8,59,29.81,10.0,West,10.4,-,N/A,,Clear,280,2012-10-20 23:35:00
7:55 PM,57.2,42.8,59,29.81,10.0,West,8.1,-,N/A,,Clear,280,2012-10-20 23:55:00
8:15 PM,57.2,41.0,55,29.82,10.0,West,9.2,-,N/A,,Clear,280,2012-10-21 00:15:00
8:35 PM,55.4,41.0,58,29.82,10.0,West,6.9,-,N/A,,Clear,280,2012-10-21 00:35:00
8:55 PM,55.4,41.0,58,29.82,10.0,West,5.8,-,N/A,,Clear,260,2012-10-21 00:55:00
9:15 PM,53.6,41.0,62,29.82,10.0,West,5.8,-,N/A,,Clear,270,2012-10-21 01:15:00
9:35 PM,53.6,41.0,62,29.83,10.0,West,5.8,-,N/A,,Clear,280,2012-10-21 01:35:00
9:55 PM,51.8,42.8,71,29.84,10.0,West,5.8,-,N/A,,Clear,280,2012-10-21 01:55:00
10:15 PM,51.8,41.0,67,29.84,10.0,WNW,6.9,-,N/A,,Clear,290,2012-10-21 02:15:00
10:35 PM,51.8,41.0,67,29.85,10.0,West,6.9,-,N/A,,Clear,280,2012-10-21 02:35:00
10:55 PM,51.8,41.0,67,29.85,10.0,West,4.6,-,N/A,,Clear,260,2012-10-21 02:55:00
11:15 PM,51.8,41.0,67,29.86,10.0,West,5.8,-,N/A,,Clear,270,2012-10-21 03:15:00
11:35 PM,51.8,42.8,71,29.85,10.0,West,6.9,-,N/A,,Clear,270,2012-10-21 03:35:00
11:55 PM,51.8,41.0,67,29.85,10.0,West,6.9,-,N/A,,Clear,270,2012-10-21 03:55:00